Overview Statistics Trail Chart Weather Telemetry Raw packets
 

This is the latest recevied weather packets stored in our database for station/object DL2AKT-20. If no packets are shown the sender has not sent any weather packets the latest 10 day(s).

<< 19 20 21 22 23 24 25 >>
Time Temp. Humidity Pressure Rain* Wind** Luminosity Snow
1777740566 28.33° C 22% 1020.2 hPa - - - -
1777739666 27.78° C 21% 1020.3 hPa - - - -
1777738766 28.33° C 21% 1020.4 hPa - - - -
1777737866 28.89° C 21% 1020.6 hPa - - - -
1777736966 28.33° C 20% 1020.7 hPa - - - -
1777736066 28.89° C 20% 1020.8 hPa - - - -
1777735166 28.89° C 22% 1020.8 hPa - - - -
1777734266 28.33° C 22% 1021.1 hPa - - - -
1777733366 28.33° C 20% 1021.2 hPa - - - -
1777732466 28.33° C 21% 1021.4 hPa - - - -
1777731565 27.78° C 23% 1021.6 hPa - - - -
1777730665 27.78° C 21% 1021.7 hPa - - - -
1777729765 27.22° C 22% 1021.9 hPa - - - -
1777728865 27.22° C 23% 1022.1 hPa - - - -
1777727964 27.22° C 20% 1022.4 hPa - - - -
1777727064 27.22° C 24% 1022.6 hPa - - - -
1777726166 26.67° C 26% 1022.8 hPa - - - -
1777725266 26.11° C 25% 1023 hPa - - - -
1777724366 25.56° C 27% 1023.3 hPa - - - -
1777723466 25.56° C 26% 1023.5 hPa - - - -
1777722566 25.56° C 27% 1023.8 hPa - - - -
1777721666 25.56° C 27% 1024 hPa - - - -
1777720766 25.56° C 25% 1024.1 hPa - - - -
1777719866 24.44° C 27% 1024.2 hPa - - - -
1777718966 23.89° C 30% 1024.5 hPa - - - -

* Rain since midnight (hover to see other rain measurements)
** Current wind speed in m/s (hover to see current wind gust speed)